Location: Lane
(33.5226°N, 79.8788°W)
Time: 19:02:22
(UTC+00:00)

Explorer 11/Cluster Stage 4 - Pass Details

Date: 01 October 2022
Orbit: 466 x 1247 km, 28.8° (Epoch: 01 December)

Event Time Altitude Azimuth Distance (km) Brightness Sun altitude
Rises 15:53:46 0° 221° (SW) 4,173 10.5 49.1°
Reaches altitude 10° 15:57:13 10° 210° (SSW) 3,191 10.1 49.4°
Maximum altitude 16:03:43 27° 157° (SSE) 2,079 10.3 50.0°
Drops below altitude 10° 16:09:42 10° 103° (ESE) 2,917 10.0 50.5°
Sets 16:12:42 0° 91° (E) 3,757 10.3 50.8°
